CPA345 VHHH-ROAH

Flight info

Callsign CPA345
Flight time 1h 46m
Altitude 41000
Route DALOL V631 ENVAR M750 KUDOS R595 MJC Y57 VELNO
Aircraft A359/H-SDE2E3GHIJ3J4J5LM1ORWXY/LB1D1

Departure

Time 2026-05-05 15:50
Airport Hong Kong International Airport (VHHH)

Arrival

Time 2026-05-05 17:37
Airport Naha International Airport (ROAH)
Time Latitude Longitude Altitude Speed Heading
2026-05-05 14:48 22.31409 113.92714 38 ft 0 kts 205°
2026-05-05 15:36 22.31413 113.92716 38 ft 3 kts 206°
2026-05-05 15:36 22.31435 113.92731 38 ft 4 kts 226°
2026-05-05 15:37 22.31447 113.92753 37 ft 4 kts 278°
2026-05-05 15:37 22.31440 113.92767 38 ft 1 kts 337°
2026-05-05 15:41 22.31461 113.92758 38 ft 8 kts 340°
2026-05-05 15:41 22.31513 113.92707 38 ft 13 kts 300°
2026-05-05 15:41 22.31557 113.92611 38 ft 13 kts 296°
2026-05-05 15:42 22.31581 113.92559 38 ft 0 kts 296°
2026-05-05 15:43 22.31599 113.92519 38 ft 11 kts 296°
2026-05-05 15:43 22.31640 113.92418 38 ft 16 kts 283°
2026-05-05 15:43 22.31618 113.92291 38 ft 19 kts 252°
2026-05-05 15:44 22.31574 113.92148 38 ft 21 kts 251°
2026-05-05 15:44 22.31521 113.91990 38 ft 24 kts 250°
2026-05-05 15:44 22.31463 113.91816 38 ft 26 kts 251°
2026-05-05 15:44 22.31403 113.91626 38 ft 28 kts 251°
2026-05-05 15:45 22.31338 113.91421 39 ft 30 kts 251°
2026-05-05 15:45 22.31267 113.91204 39 ft 32 kts 251°
2026-05-05 15:45 22.31193 113.90975 39 ft 33 kts 251°
2026-05-05 15:45 22.31115 113.90733 39 ft 35 kts 251°
2026-05-05 15:46 22.31040 113.90502 38 ft 14 kts 251°
2026-05-05 15:46 22.30992 113.90427 38 ft 13 kts 200°
2026-05-05 15:46 22.30903 113.90446 38 ft 15 kts 159°
2026-05-05 15:46 22.30777 113.90494 38 ft 23 kts 161°
2026-05-05 15:47 22.30597 113.90561 38 ft 31 kts 161°
2026-05-05 15:47 22.30452 113.90614 38 ft 34 kts 161°
2026-05-05 15:47 22.30228 113.90694 38 ft 9 kts 175°
2026-05-05 15:47 22.30176 113.90654 38 ft 11 kts 243°
2026-05-05 15:48 22.30145 113.90568 38 ft 14 kts 249°
2026-05-05 15:48 22.30110 113.90459 38 ft 18 kts 251°
2026-05-05 15:48 22.30059 113.90297 38 ft 26 kts 251°
2026-05-05 15:48 22.29989 113.90200 38 ft 14 kts 182°
2026-05-05 15:49 22.29891 113.90220 38 ft 13 kts 152°
2026-05-05 15:49 22.29805 113.90258 36 ft 0 kts 163°
2026-05-05 15:49 22.29793 113.90262 37 ft 7 kts 160°
2026-05-05 15:49 22.29781 113.90297 37 ft 4 kts 75°
2026-05-05 15:50 22.29787 113.90318 37 ft 16 kts 72°
2026-05-05 15:50 22.29909 113.90694 37 ft 92 kts 72°
2026-05-05 15:50 22.30195 113.91590 40 ft 158 kts 71°
2026-05-05 15:50 22.30573 113.92728 782 ft 157 kts 71°
2026-05-05 15:51 22.30944 113.93848 1560 ft 167 kts 72°
2026-05-05 15:51 22.31339 113.95100 2068 ft 185 kts 72°
2026-05-05 15:51 22.31772 113.96470 2721 ft 198 kts 72°
2026-05-05 15:51 22.32224 113.97879 3525 ft 205 kts 72°
2026-05-05 15:52 22.32698 113.99363 4150 ft 210 kts 72°
2026-05-05 15:52 22.33178 114.00857 4217 ft 213 kts 72°
2026-05-05 15:52 22.33636 114.02386 4305 ft 215 kts 77°
2026-05-05 15:52 22.33795 114.03995 4478 ft 215 kts 95°
2026-05-05 15:53 22.33453 114.05578 4849 ft 219 kts 113°
2026-05-05 15:53 22.32642 114.06955 5215 ft 223 kts 133°
2026-05-05 15:53 22.31409 114.08012 5613 ft 235 kts 151°
2026-05-05 15:53 22.29843 114.08654 5990 ft 246 kts 169°
2026-05-05 15:54 22.28125 114.08804 6371 ft 250 kts 181°
2026-05-05 15:54 22.26313 114.08767 6766 ft 267 kts 182°
2026-05-05 15:54 22.24407 114.08721 7322 ft 279 kts 182°
2026-05-05 15:54 22.22478 114.08686 8422 ft 274 kts 182°
2026-05-05 15:55 22.20584 114.08660 9455 ft 273 kts 182°
2026-05-05 15:55 22.18663 114.08698 10329 ft 279 kts 176°
2026-05-05 15:55 22.16773 114.09274 11172 ft 289 kts 156°
2026-05-05 15:55 22.15190 114.10654 11975 ft 301 kts 131°
2026-05-05 15:56 22.14083 114.12606 12765 ft 310 kts 119°
2026-05-05 15:56 22.13112 114.14705 13562 ft 316 kts 118°
2026-05-05 15:56 22.12108 114.16885 14007 ft 335 kts 118°
2026-05-05 15:56 22.11026 114.19197 14348 ft 355 kts 118°
2026-05-05 15:57 22.09878 114.21631 14695 ft 373 kts 118°
2026-05-05 15:57 22.08677 114.24139 15027 ft 388 kts 120°
2026-05-05 15:57 22.07094 114.26508 15521 ft 393 kts 137°
2026-05-05 15:57 22.04993 114.28402 16129 ft 396 kts 146°
2026-05-05 15:58 22.02755 114.30164 16710 ft 401 kts 147°
2026-05-05 15:58 22.00482 114.31935 17302 ft 406 kts 147°
2026-05-05 15:58 21.98181 114.33735 17887 ft 410 kts 147°
2026-05-05 15:58 21.95862 114.35554 18479 ft 415 kts 146°
2026-05-05 15:59 21.93520 114.37401 19029 ft 419 kts 147°
2026-05-05 15:59 21.91161 114.39255 19627 ft 422 kts 147°
2026-05-05 15:59 21.88777 114.41133 20241 ft 425 kts 147°
2026-05-05 15:59 21.86521 114.43227 20794 ft 432 kts 136°
2026-05-05 16:00 21.84721 114.45850 21328 ft 441 kts 121°
2026-05-05 16:00 21.83565 114.48877 21874 ft 446 kts 108°
2026-05-05 16:00 21.82709 114.52107 22411 ft 450 kts 106°
2026-05-05 16:00 21.81890 114.55373 22905 ft 454 kts 106°
2026-05-05 16:01 21.81055 114.58675 23394 ft 458 kts 107°
2026-05-05 16:01 21.80208 114.61994 23887 ft 462 kts 107°
2026-05-05 16:01 21.79347 114.65340 24358 ft 465 kts 107°
2026-05-05 16:01 21.78476 114.68709 24790 ft 470 kts 107°
2026-05-05 16:02 21.77594 114.72117 25271 ft 474 kts 107°
2026-05-05 16:02 21.76705 114.75549 25758 ft 479 kts 107°
2026-05-05 16:02 21.75805 114.79016 26234 ft 484 kts 107°
2026-05-05 16:02 21.74918 114.82529 26699 ft 489 kts 104°
2026-05-05 16:03 21.74398 114.86157 27158 ft 494 kts 94°
2026-05-05 16:03 21.74239 114.89863 27630 ft 498 kts 91°
2026-05-05 16:03 21.74210 114.93556 28122 ft 502 kts 89°
2026-05-05 16:03 21.74239 114.97328 28561 ft 506 kts 89°
2026-05-05 16:04 21.74284 115.01130 28951 ft 512 kts 88°
2026-05-05 16:04 21.74321 115.04986 29383 ft 516 kts 89°
2026-05-05 16:04 21.74345 115.08853 29843 ft 519 kts 89°
2026-05-05 16:04 21.74356 115.12755 30242 ft 523 kts 89°
2026-05-05 16:05 21.74357 115.16691 30653 ft 527 kts 89°
2026-05-05 16:05 21.74354 115.20643 31070 ft 531 kts 89°
2026-05-05 16:05 21.74348 115.24630 31470 ft 534 kts 89°
2026-05-05 16:05 21.74340 115.28627 31883 ft 536 kts 89°
2026-05-05 16:06 21.74328 115.32647 32238 ft 540 kts 89°
2026-05-05 16:06 21.74316 115.36705 32603 ft 542 kts 89°
2026-05-05 16:06 21.74304 115.40718 32926 ft 545 kts 89°
2026-05-05 16:06 21.74291 115.44807 33244 ft 548 kts 89°
2026-05-05 16:07 21.74277 115.48919 33543 ft 551 kts 89°
2026-05-05 16:07 21.74263 115.53053 33853 ft 554 kts 89°
2026-05-05 16:07 21.74248 115.57207 34141 ft 556 kts 88°
2026-05-05 16:07 21.74234 115.61382 34409 ft 559 kts 88°
2026-05-05 16:08 21.74220 115.65566 34745 ft 559 kts 88°
2026-05-05 16:08 21.74205 115.69737 35175 ft 557 kts 89°
2026-05-05 16:08 21.74187 115.73896 35586 ft 556 kts 89°
2026-05-05 16:08 21.74169 115.78048 35934 ft 555 kts 89°
2026-05-05 16:09 21.74150 115.82203 36288 ft 554 kts 89°
2026-05-05 16:09 21.74130 115.86354 36611 ft 555 kts 89°
2026-05-05 16:09 21.74110 115.90437 36948 ft 553 kts 89°
2026-05-05 16:09 21.74088 115.94579 37271 ft 553 kts 89°
2026-05-05 16:10 21.74063 115.98708 37698 ft 549 kts 89°
2026-05-05 16:10 21.74037 116.02797 38174 ft 544 kts 89°
2026-05-05 16:10 21.74010 116.06832 38801 ft 536 kts 89°
2026-05-05 16:10 21.73983 116.10822 39235 ft 533 kts 89°
2026-05-05 16:11 21.73956 116.14816 39507 ft 532 kts 89°
2026-05-05 16:11 21.73872 116.26735 40302 ft 529 kts 89°
2026-05-05 16:12 21.73842 116.30685 40563 ft 528 kts 89°
2026-05-05 16:12 21.73780 116.38586 40940 ft 529 kts 89°
2026-05-05 16:13 21.73680 116.50577 40998 ft 539 kts 89°
2026-05-05 16:13 21.73606 116.58628 40999 ft 538 kts 89°
2026-05-05 16:14 21.73465 116.73361 41009 ft 537 kts 89°
2026-05-05 16:15 21.74915 116.82470 41024 ft 529 kts 68°
2026-05-05 16:15 21.77443 116.89896 41017 ft 529 kts 65°
2026-05-05 16:16 21.82417 117.03415 41020 ft 529 kts 65°
2026-05-05 16:17 21.86417 117.14440 41013 ft 530 kts 65°
2026-05-05 16:18 21.90415 117.25559 41028 ft 531 kts 66°
2026-05-05 16:19 21.94413 117.36699 41013 ft 532 kts 66°
2026-05-05 16:19 21.98431 117.47861 41010 ft 532 kts 64°
2026-05-05 16:20 22.05731 117.61628 41011 ft 530 kts 54°
2026-05-05 16:22 22.15371 117.78536 41001 ft 531 kts 54°
2026-05-05 16:23 22.23056 117.92133 40998 ft 530 kts 55°
2026-05-05 16:23 22.28818 118.02347 40999 ft 530 kts 54°
2026-05-05 16:24 22.32742 118.09098 40998 ft 530 kts 53°
2026-05-05 16:25 22.38676 118.19199 40997 ft 531 kts 54°
2026-05-05 16:25 22.44537 118.29380 40999 ft 533 kts 54°
2026-05-05 16:26 22.52251 118.43086 41000 ft 534 kts 54°
2026-05-05 16:27 22.56122 118.49946 40998 ft 535 kts 54°
2026-05-05 16:27 22.60006 118.56810 40995 ft 535 kts 54°
2026-05-05 16:28 22.63899 118.63626 40991 ft 536 kts 54°
2026-05-05 16:28 22.67819 118.70499 40989 ft 537 kts 54°
2026-05-05 16:29 22.71738 118.77392 40990 ft 537 kts 54°
2026-05-05 16:29 22.75651 118.84289 40989 ft 538 kts 54°
2026-05-05 16:30 22.79572 118.91211 40990 ft 539 kts 54°
2026-05-05 16:30 22.83489 118.98134 40991 ft 539 kts 54°
2026-05-05 16:31 22.87403 119.05062 40989 ft 539 kts 54°
2026-05-05 16:31 22.91325 119.12012 40990 ft 540 kts 54°
2026-05-05 16:32 22.95219 119.18922 40989 ft 540 kts 54°
2026-05-05 16:32 22.99135 119.25882 41001 ft 540 kts 55°
2026-05-05 16:33 23.03053 119.32854 40998 ft 541 kts 55°
2026-05-05 16:33 23.06974 119.39840 41000 ft 542 kts 55°
2026-05-05 16:34 23.10893 119.46832 40998 ft 543 kts 55°
2026-05-05 16:34 23.14818 119.53845 40997 ft 543 kts 55°
2026-05-05 16:35 23.18744 119.60874 40990 ft 544 kts 55°
2026-05-05 16:35 23.22673 119.67913 41000 ft 545 kts 55°
2026-05-05 16:36 23.26330 119.74461 40999 ft 546 kts 55°
2026-05-05 16:36 23.30269 119.81526 40999 ft 546 kts 55°
2026-05-05 16:37 23.34195 119.88613 40994 ft 548 kts 57°
2026-05-05 16:37 23.37570 119.96029 40999 ft 552 kts 63°
2026-05-05 16:38 23.40628 120.03698 40998 ft 553 kts 64°
2026-05-05 16:38 23.43661 120.11403 40997 ft 553 kts 64°
2026-05-05 16:39 23.46729 120.19105 40998 ft 554 kts 64°
2026-05-05 16:39 23.49814 120.26795 40992 ft 554 kts 64°
2026-05-05 16:40 23.52900 120.34490 40997 ft 554 kts 64°
2026-05-05 16:40 23.55960 120.42133 40998 ft 554 kts 64°
2026-05-05 16:41 23.59038 120.49841 40997 ft 553 kts 64°
2026-05-05 16:41 23.62108 120.57539 40999 ft 553 kts 64°
2026-05-05 16:42 23.65171 120.65245 40997 ft 554 kts 64°
2026-05-05 16:42 23.68233 120.72952 41001 ft 553 kts 64°
2026-05-05 16:43 23.71289 120.80649 41000 ft 553 kts 64°
2026-05-05 16:43 23.74339 120.88351 41001 ft 553 kts 64°
2026-05-05 16:44 23.77371 120.96020 40994 ft 553 kts 64°
2026-05-05 16:44 23.80413 121.03725 40992 ft 552 kts 65°
2026-05-05 16:45 23.83445 121.11434 41007 ft 552 kts 65°
2026-05-05 16:45 23.86482 121.19154 41002 ft 553 kts 65°
2026-05-05 16:46 23.89516 121.26882 41000 ft 553 kts 65°
2026-05-05 16:46 23.92533 121.34573 41008 ft 553 kts 65°
2026-05-05 16:47 23.95558 121.42297 41001 ft 553 kts 65°
2026-05-05 16:47 23.98576 121.50034 40999 ft 554 kts 65°
2026-05-05 16:48 24.01600 121.57793 40996 ft 554 kts 65°
2026-05-05 16:48 24.04626 121.65566 40991 ft 555 kts 65°
2026-05-05 16:49 24.07650 121.73350 40973 ft 556 kts 65°
2026-05-05 16:49 24.10649 121.81083 40969 ft 556 kts 65°
2026-05-05 16:50 24.13663 121.88869 40970 ft 556 kts 65°
2026-05-05 16:50 24.16691 121.96707 40960 ft 555 kts 65°
2026-05-05 16:51 24.19682 122.04459 40966 ft 555 kts 65°
2026-05-05 16:51 24.22690 122.12267 40961 ft 555 kts 65°
2026-05-05 16:52 24.25693 122.20084 40961 ft 556 kts 65°
2026-05-05 16:52 24.28666 122.27835 40959 ft 556 kts 65°
2026-05-05 16:53 24.31658 122.35651 40961 ft 556 kts 66°
2026-05-05 16:53 24.34625 122.43495 40948 ft 557 kts 69°
2026-05-05 16:54 24.36945 122.51610 40952 ft 558 kts 71°
2026-05-05 16:54 24.38879 122.59866 40945 ft 558 kts 79°
2026-05-05 16:55 24.40277 122.68231 40943 ft 558 kts 80°
2026-05-05 16:55 24.41775 122.76528 40943 ft 558 kts 78°
2026-05-05 16:56 24.43420 122.84843 40943 ft 558 kts 78°
2026-05-05 16:56 24.45113 122.93153 40940 ft 558 kts 78°
2026-05-05 16:57 24.46802 123.01464 40934 ft 558 kts 78°
2026-05-05 16:57 24.48480 123.09785 40942 ft 558 kts 78°
2026-05-05 16:58 24.50152 123.18104 40944 ft 558 kts 78°
2026-05-05 16:58 24.51815 123.26423 40944 ft 557 kts 78°
2026-05-05 16:59 24.53466 123.34736 40943 ft 557 kts 78°
2026-05-05 16:59 24.55118 123.43046 40943 ft 556 kts 78°
2026-05-05 17:00 24.56755 123.51295 40943 ft 556 kts 78°
2026-05-05 17:00 24.58397 123.59602 40943 ft 556 kts 78°
2026-05-05 17:01 24.60036 123.67918 40943 ft 556 kts 78°
2026-05-05 17:01 24.61668 123.76227 40943 ft 556 kts 78°
2026-05-05 17:02 24.63296 123.84542 40943 ft 556 kts 78°
2026-05-05 17:02 24.64919 123.92861 40943 ft 556 kts 78°
2026-05-05 17:03 24.66265 123.99772 40943 ft 556 kts 78°
2026-05-05 17:03 24.67879 124.08092 40943 ft 556 kts 79°
2026-05-05 17:04 24.69486 124.16412 40943 ft 556 kts 79°
2026-05-05 17:04 24.71096 124.24746 40952 ft 556 kts 79°
2026-05-05 17:05 24.72698 124.33070 40959 ft 556 kts 79°
2026-05-05 17:05 24.74294 124.41397 40961 ft 556 kts 79°
2026-05-05 17:06 24.75763 124.49750 40967 ft 555 kts 85°
2026-05-05 17:06 24.76299 124.58205 40961 ft 554 kts 90°
2026-05-05 17:07 24.76481 124.66621 40970 ft 554 kts 91°
2026-05-05 17:07 24.76618 124.75093 40972 ft 554 kts 91°
2026-05-05 17:08 24.76784 124.83565 40971 ft 554 kts 91°
2026-05-05 17:08 24.76969 124.92041 40980 ft 554 kts 91°
2026-05-05 17:09 24.77154 125.00519 40988 ft 554 kts 91°
2026-05-05 17:09 24.77335 125.09002 40989 ft 554 kts 91°
2026-05-05 17:10 24.77509 125.17484 40989 ft 554 kts 91°
2026-05-05 17:10 24.77761 125.25959 40982 ft 556 kts 84°
2026-05-05 17:11 24.78645 125.30099 40993 ft 556 kts 69°
2026-05-05 17:11 24.80255 125.33961 40989 ft 554 kts 60°
2026-05-05 17:11 24.84214 125.41253 40988 ft 555 kts 55°
2026-05-05 17:12 24.88405 125.48350 40815 ft 545 kts 55°
2026-05-05 17:12 24.90434 125.51817 40092 ft 547 kts 56°
2026-05-05 17:12 24.92493 125.55380 39090 ft 554 kts 56°
2026-05-05 17:13 24.94558 125.58995 38155 ft 560 kts 57°
2026-05-05 17:13 24.96625 125.62644 37405 ft 560 kts 57°
2026-05-05 17:13 24.98679 125.66292 36682 ft 559 kts 57°
2026-05-05 17:13 25.00542 125.69606 36025 ft 558 kts 57°
2026-05-05 17:14 25.02488 125.73069 35318 ft 557 kts 57°
2026-05-05 17:14 25.04526 125.76696 34505 ft 557 kts 57°
2026-05-05 17:14 25.06573 125.80338 33635 ft 559 kts 57°
2026-05-05 17:14 25.08619 125.83979 32752 ft 560 kts 57°
2026-05-05 17:15 25.10672 125.87635 31843 ft 561 kts 57°
2026-05-05 17:15 25.12729 125.91301 30934 ft 562 kts 57°
2026-05-05 17:15 25.14774 125.94949 30341 ft 555 kts 57°
2026-05-05 17:15 25.16791 125.98551 29724 ft 550 kts 57°
2026-05-05 17:16 25.18791 126.02126 29096 ft 545 kts 57°
2026-05-05 17:16 25.20774 126.05672 28469 ft 540 kts 57°
2026-05-05 17:16 25.22736 126.09182 27854 ft 535 kts 57°
2026-05-05 17:16 25.24654 126.12614 27255 ft 530 kts 57°
2026-05-05 17:17 25.26579 126.16063 26642 ft 524 kts 58°
2026-05-05 17:17 25.28479 126.19471 26031 ft 519 kts 58°
2026-05-05 17:17 25.30361 126.22847 25451 ft 513 kts 58°
2026-05-05 17:17 25.32226 126.26195 24847 ft 508 kts 58°
2026-05-05 17:18 25.34068 126.29504 24253 ft 503 kts 58°
2026-05-05 17:18 25.35887 126.32778 23662 ft 497 kts 58°
2026-05-05 17:18 25.37686 126.36015 23076 ft 491 kts 59°
2026-05-05 17:18 25.39466 126.39220 22474 ft 486 kts 59°
2026-05-05 17:19 25.41229 126.42395 21890 ft 480 kts 59°
2026-05-05 17:19 25.42964 126.45522 21301 ft 475 kts 59°
2026-05-05 17:19 25.44685 126.48626 20718 ft 470 kts 59°
2026-05-05 17:19 25.46383 126.51690 20132 ft 464 kts 59°
2026-05-05 17:20 25.48059 126.54717 19552 ft 459 kts 59°
2026-05-05 17:20 25.49713 126.57722 18969 ft 454 kts 59°
2026-05-05 17:20 25.51346 126.60695 18401 ft 449 kts 59°
2026-05-05 17:20 25.52959 126.63635 17815 ft 445 kts 59°
2026-05-05 17:21 25.54558 126.66547 17213 ft 441 kts 59°
2026-05-05 17:21 25.56121 126.69396 16657 ft 436 kts 60°
2026-05-05 17:21 25.57704 126.72284 16081 ft 431 kts 60°
2026-05-05 17:22 25.60780 126.77896 14970 ft 421 kts 60°
2026-05-05 17:22 25.62269 126.80616 14420 ft 417 kts 60°
2026-05-05 17:22 25.63765 126.83350 13866 ft 413 kts 60°
2026-05-05 17:22 25.65243 126.86057 13321 ft 408 kts 60°
2026-05-05 17:23 25.66707 126.88736 12749 ft 404 kts 60°
2026-05-05 17:23 25.68154 126.91387 12221 ft 399 kts 60°
2026-05-05 17:23 25.69579 126.94008 11678 ft 395 kts 60°
2026-05-05 17:23 25.70993 126.96604 11138 ft 391 kts 60°
2026-05-05 17:24 25.72374 126.99132 10927 ft 375 kts 60°
2026-05-05 17:24 25.73692 127.01545 10806 ft 357 kts 60°
2026-05-05 17:24 25.74948 127.03847 10662 ft 341 kts 60°
2026-05-05 17:24 25.76152 127.06057 10538 ft 327 kts 61°
2026-05-05 17:25 25.77302 127.08169 10406 ft 314 kts 61°
2026-05-05 17:25 25.78030 127.09510 10256 ft 310 kts 61°
2026-05-05 17:25 25.79494 127.12204 9834 ft 307 kts 61°
2026-05-05 17:25 25.80603 127.14253 9519 ft 313 kts 61°
2026-05-05 17:26 25.81726 127.16322 9212 ft 312 kts 60°
2026-05-05 17:26 25.82840 127.18373 8902 ft 310 kts 61°
2026-05-05 17:26 25.83950 127.20416 8598 ft 307 kts 61°
2026-05-05 17:26 25.85050 127.22442 8293 ft 304 kts 61°
2026-05-05 17:27 25.86134 127.24441 7996 ft 301 kts 61°
2026-05-05 17:27 25.87212 127.26433 7616 ft 299 kts 61°
2026-05-05 17:27 25.88276 127.28399 7322 ft 296 kts 62°
2026-05-05 17:27 25.89315 127.30370 7068 ft 294 kts 65°
2026-05-05 17:28 25.90026 127.32458 6777 ft 287 kts 77°
2026-05-05 17:28 25.90543 127.34598 6487 ft 285 kts 79°
2026-05-05 17:28 25.91024 127.36702 6193 ft 283 kts 79°
2026-05-05 17:28 25.91507 127.38810 5903 ft 281 kts 79°
2026-05-05 17:29 25.91991 127.40893 5613 ft 277 kts 79°
2026-05-05 17:29 25.92470 127.42957 5264 ft 274 kts 78°
2026-05-05 17:29 25.92942 127.44987 4924 ft 269 kts 78°
2026-05-05 17:29 25.93406 127.46979 4765 ft 265 kts 77°
2026-05-05 17:30 25.93867 127.48960 4493 ft 265 kts 77°
2026-05-05 17:30 25.94326 127.50929 4178 ft 260 kts 77°
2026-05-05 17:30 25.94776 127.52872 3888 ft 260 kts 77°
2026-05-05 17:30 25.95226 127.54777 3733 ft 249 kts 77°
2026-05-05 17:31 25.95648 127.56596 3574 ft 236 kts 77°
2026-05-05 17:31 25.96139 127.58291 3410 ft 227 kts 66°
2026-05-05 17:31 25.97079 127.59662 3244 ft 221 kts 44°
2026-05-05 17:31 25.98292 127.60668 3044 ft 214 kts 37°
2026-05-05 17:32 25.99506 127.61557 2894 ft 204 kts 36°
2026-05-05 17:32 26.00679 127.62409 2784 ft 200 kts 37°
2026-05-05 17:32 26.01821 127.63242 2609 ft 193 kts 37°
2026-05-05 17:32 26.02913 127.64038 2467 ft 183 kts 37°
2026-05-05 17:33 26.04009 127.64757 2336 ft 184 kts 30°
2026-05-05 17:33 26.05222 127.65217 2207 ft 186 kts 16°
2026-05-05 17:33 26.06518 127.65162 2144 ft 183 kts 355°
2026-05-05 17:33 26.07730 127.65021 2072 ft 170 kts
2026-05-05 17:34 26.08885 127.64995 1875 ft 165 kts
2026-05-05 17:34 26.10003 127.64949 1671 ft 157 kts
2026-05-05 17:34 26.11061 127.64897 1455 ft 148 kts
2026-05-05 17:34 26.12062 127.64857 1263 ft 139 kts
2026-05-05 17:35 26.13024 127.64816 1086 ft 138 kts
2026-05-05 17:35 26.13987 127.64775 901 ft 138 kts
2026-05-05 17:35 26.14945 127.64733 722 ft 138 kts
2026-05-05 17:35 26.15896 127.64694 539 ft 136 kts
2026-05-05 17:36 26.16841 127.64668 359 ft 136 kts
2026-05-05 17:36 26.17782 127.64661 170 ft 135 kts 359°
2026-05-05 17:36 26.18719 127.64626 27 ft 132 kts
2026-05-05 17:36 26.19541 127.64589 24 ft 105 kts 358°
2026-05-05 17:37 26.20050 127.64566 23 ft 45 kts 358°
2026-05-05 17:37 26.20211 127.64586 27 ft 32 kts 15°
2026-05-05 17:37 26.20373 127.64666 27 ft 9 kts 27°
2026-05-05 17:37 26.20428 127.64698 27 ft 9 kts 27°
2026-05-05 17:38 26.20434 127.64701 27 ft 0 kts 27°
2026-05-05 17:39 26.20460 127.64716 27 ft 5 kts 27°
2026-05-05 17:39 26.20473 127.64732 23 ft 1 kts 73°
2026-05-05 17:39 26.20470 127.64738 24 ft 2 kts 110°
2026-05-05 17:40 26.20459 127.64744 27 ft 2 kts 155°
2026-05-05 17:40 26.20434 127.64750 29 ft 8 kts 167°
2026-05-05 17:40 26.20376 127.64782 27 ft 9 kts 134°
2026-05-05 17:40 26.20356 127.64833 31 ft 5 kts 98°
2026-05-05 17:41 26.20355 127.64863 27 ft 3 kts 91°
2026-05-05 17:41 26.20357 127.64888 27 ft 1 kts 76°
2026-05-05 17:41 26.20363 127.64898 27 ft 2 kts 56°
2026-05-05 17:41 26.20380 127.64907 27 ft 5 kts 20°
2026-05-05 17:42 26.20414 127.64924 28 ft 5 kts 26°
2026-05-05 17:42 26.20432 127.64934 28 ft 1 kts 26°